Weather Roundup
Issued by NWS

Home | Current Version | Previous Version | Graphics & Text | Print | Product List | Glossary Off
Versions: 1 2 3 4 5 6 7 8 9 10 11 12 13 14 15 16 17 18 19 20 21 22 23 24 25 26 27 28 29 30 31 32 33 34 35 36 37 38 39 40 41 42 43 44 45 46 47 48 49 50

853
NZUS93 KARX 140710
HRRWXR

CURRENT HOURLY OBSERVATIONS ACROSS
MUCH OF THE UPPER MISSISSIPPI VALLEY
NATIONAL WEATHER SERVICE LA CROSSE WI
100 AM CST THU DEC 14 2017


...SOUTHEAST MINNESOTA...


CITY           SKY/WX    TMP DP  RH WIND       PRES   REMARKS
ROCHESTER      CLEAR     11   9  92 NW8       29.94R WCI  -1
ROCHESTER/MAYO FAIR      17  13  84 NW5       29.96R WCI  10
WINONA         PTCLDY    16  14  93 CALM      29.97S
AUSTIN         CLEAR     16  12  86 N7        29.95R WCI   6
ALBERT LEA     PTCLDY    16  12  86 NW5       29.96R WCI   9
DODGE CENTER   PTCLDY    14  10  85 NW7       29.95R WCI   4
PRESTON        CLEAR     13  10  85 NW5       29.94R WCI   6
OWATONNA       CLEAR     10   9  92 CALM      29.98R
FARIBAULT      PTCLDY    16  12  86 CALM      29.98S
$$

...ELSEWHERE IN MINNESOTA...


CITY           SKY/WX    TMP DP  RH WIND       PRES   REMARKS
MINNEAPOLIS    CLOUDY    18  15  88 W6        29.99R WCI  10
INTNL FALLS    CLOUDY    13  10  88 W5        29.91F WCI   5
DULUTH         MOCLDY     4   3  96 SW3       29.90F
RED WING       PTCLDY    10   7  85 CALM      29.98R
REDWOOD FALLS  CLOUDY    19  11  70 NE5       30.00S WCI  12
MANKATO        CLEAR     15  13  91 NW5       29.99S WCI   8
WORTHINGTON    CLOUDY    22  18  85 N15       29.98R WCI   9
FAIRMONT       CLOUDY    21  16  81 N10       29.99S WCI  10
$$

...SOUTHWEST WISCONSIN...


CITY           SKY/WX    TMP DP  RH WIND       PRES   REMARKS
LA CROSSE      PTCLDY    13   9  84 N8        29.96R WCI   2
PRAIRIE DU CHI CLOUDY    19  12  73 CALM      29.96R
BOSCOBEL       CLOUDY    20  14  77 NW3       29.95R
LONE ROCK      MOCLDY    19  12  74 CALM      29.94R
PLATTEVILLE    CLOUDY    22  16  77 N8        29.92R WCI  12
FORT MC COY    PTCLDY     6   4  91 CALM      29.95R
CAMP DOUGLAS   CLEAR      5   2  88 NW6       29.92R WCI  -6
MAUSTON-NEW LI SUNNY     12  10  90 W6        29.91R WCI   3
VIROQUA        FAIR      12  11  96 CALM      29.90R
WIS DELLS      CLEAR     14  10  85 CALM      29.90R
$$

...ELSEWHERE IN WISCONSIN...


CITY           SKY/WX    TMP DP  RH WIND       PRES   REMARKS
MILWAUKEE      PTCLDY    18  10  71 N10       29.85R WCI   6
MADISON        CLEAR     14   9  80 N6        29.90R WCI   5
GREEN BAY      CLOUDY     6   2  83 NW7       29.88R WCI  -6
EAU CLAIRE     CLOUDY     9   6  88 W3        29.95R
BLACK RVR FLS  FAIR       0  -5  81 CALM      29.94R
MEDFORD        CLOUDY     6   3  88 CALM      29.86R
WAUSAU         CLOUDY    12   9  87 NW6       29.85S WCI   3
WIS RAPIDS     PTCLDY     7   5  91 W3        29.91R
MARSHFIELD     CLOUDY    10   7  87 NW6       29.87R WCI   0
RICE LAKE      CLOUDY    14  13  95 CALM      29.95R
$$

...NORTHEAST IOWA...


CITY           SKY/WX    TMP DP  RH WIND       PRES   REMARKS
WATERLOO       CLOUDY    18  12  77 N8        29.96R WCI   8
DUBUQUE        CLOUDY    21  14  74 N12       29.91R WCI   9
DECORAH        CLOUDY    16  12  86 CALM      29.92R
MASON CITY     CLOUDY    22  14  71 N12       29.97R WCI  10
CHARLES CITY   CLOUDY    19  14  79 N5        29.96R WCI  13
OELWEIN        CLEAR     16  14  93 N5        29.94R WCI   9
$$

...ELSEWHERE IN IOWA...


CITY           SKY/WX    TMP DP  RH WIND       PRES   REMARKS
DES MOINES     MOCLDY    29  19  66 N12       29.96S WCI  19
IOWA CITY      PTCLDY    25  15  66 N8        29.97R WCI  16
FORT DODGE     CLOUDY    25  18  74 N9        29.97S WCI  15
MARSHALLTOWN   CLOUDY    25  17  72 N10       29.96R WCI  15
CEDAR RAPIDS   CLOUDY    21  14  74 N10       29.94R WCI  10
$$

...NORTHERN ILLINOIS...


CITY           SKY/WX    TMP DP  RH WIND       PRES   REMARKS
CHICAGO-OHARE  FLURRIES  26  18  71 N16       29.82R WCI  14
CHICAGO-MIDWAY FLURRIES  28  22  78 N14       29.82R WCI  17
MOLINE         CLOUDY    26  16  65 N13       29.92R WCI  15
ROCKFORD       PTCLDY    20  12  71 N14       29.91R WCI   7
PEORIA         CLOUDY    28  16  60 N8G20     29.90R WCI  20
$$

NOTE: "FAIR" INDICATES FEW OR NO CLOUDS BELOW 12,000 FEET WITH NO
SIGNIFICANT WEATHER AND/OR OBSTRUCTIONS TO VISIBILITY. WIND
SPEEDS ARE IN MILES-PER-HOUR.




USA.gov is the U.S. government's official web portal to all federal, state and local government web resources and services.